period_start,C,m1,H,J0,J1,J2,J3,J4,J5,JA,JB,JC,JD,JJ,JK,JN,#
2015-11-27 00:02:40,0.05,2.24,0.00,18.02,22.52,26.38,14.98,51.34,1021.38,2052.00,2734.26,2564.77,2821.34,599.84,608.89,36.02,0000 0000 0000 0000 000000
2015-11-27 00:07:41,0.05,2.24,0.00,18.02,22.52,26.43,14.93,51.12,1021.49,2052.01,2733.33,2564.03,2820.68,600.06,609.21,36.07,0000 0000 0000 0000 000000
2015-11-27 00:12:43,0.05,2.24,0.00,18.02,22.52,26.43,14.91,51.13,1021.50,2052.00,2732.48,2563.38,2819.99,599.73,608.81,36.12,0000 0000 0000 0000 000000
2015-11-27 00:17:44,0.03,2.25,0.00,18.02,22.53,26.43,14.97,50.93,1021.39,2052.00,2731.73,2562.97,2819.16,600.41,609.51,36.17,0000 0000 0000 0000 000000
2015-11-27 00:22:45,0.06,2.25,0.00,18.02,22.54,26.43,14.94,51.26,1021.37,2052.00,2730.91,2562.17,2818.64,599.70,608.89,36.22,0000 0000 0000 0000 000000
2015-11-27 00:27:47,0.04,2.25,0.00,18.01,22.54,26.45,15.01,51.28,1021.27,2052.00,2730.05,2561.69,2817.95,600.09,609.10,36.27,0000 0000 0000 0000 000000
2015-11-27 00:32:48,0.05,2.25,0.00,18.00,22.54,26.45,14.96,51.01,1021.42,2052.00,2729.18,2561.03,2817.14,600.05,609.24,36.32,0000 0000 0000 0000 000000
2015-11-27 00:37:49,0.07,2.26,0.00,18.01,22.54,26.48,15.02,51.23,1021.43,2052.00,2728.31,2560.44,2816.50,599.93,609.14,36.37,0000 0000 0000 0000 000000
2015-11-27 00:42:50,0.03,2.26,0.00,18.02,22.54,26.44,15.01,51.13,1021.46,2052.00,2727.46,2559.94,2815.90,600.02,609.14,36.42,0000 0000 0000 0000 000000
2015-11-27 00:47:51,0.06,2.26,0.00,18.02,22.54,26.44,14.98,50.93,1021.50,2052.00,2726.65,2559.16,2815.11,600.15,609.29,36.47,0000 0000 0000 0000 000000
2015-11-27 00:52:53,0.03,2.26,0.00,18.02,22.54,26.46,14.92,50.81,1021.51,2052.00,2725.82,2558.99,2814.57,599.84,608.96,36.52,0000 0000 0000 0000 000000
2015-11-27 00:57:54,0.05,2.27,0.00,18.04,22.54,26.46,15.01,51.09,1021.52,2052.00,2725.02,2558.27,2813.89,600.01,609.19,36.57,0000 0000 0000 0000 000000
2015-11-27 01:02:55,0.05,2.27,0.00,18.04,22.54,26.47,15.01,51.42,1021.69,2052.00,2724.14,2557.81,2813.07,600.35,609.53,36.62,0000 0000 0000 0000 000000
2015-11-27 01:07:56,0.05,2.27,0.00,18.02,22.55,26.40,14.97,50.93,1021.97,2052.00,2723.46,2557.07,2812.57,600.07,609.56,36.67,0000 0000 0000 0000 000000
2015-11-27 01:12:57,0.05,2.27,0.00,18.02,22.55,26.40,14.91,50.93,1021.89,2052.00,2722.58,2556.52,2811.90,599.79,609.18,36.72,0000 0000 0000 0000 000000
2015-11-27 01:17:59,0.03,2.28,0.00,18.03,22.55,26.45,14.95,50.83,1021.91,2052.00,2721.82,2556.01,2811.09,599.88,609.30,36.77,0000 0000 0000 0000 000000
2015-11-27 01:23:00,0.06,2.28,0.00,18.04,22.56,26.39,14.95,50.60,1021.96,2052.00,2721.03,2555.40,2810.52,599.83,609.13,36.82,0000 0000 0000 0000 000000
2015-11-27 01:28:01,0.03,2.28,0.00,18.04,22.57,26.42,14.98,50.61,1021.99,2051.99,2720.19,2554.94,2809.96,599.86,609.23,36.87,0000 0000 0000 0000 000000
2015-11-27 01:33:02,0.06,2.29,0.00,18.07,22.57,26.43,14.91,50.68,1022.01,2051.99,2719.51,2554.20,2809.24,599.85,609.20,36.92,0000 0000 0000 0000 000000
2015-11-27 01:38:03,0.03,2.29,0.00,18.05,22.57,26.48,15.01,50.63,1022.15,2051.99,2718.69,2553.91,2808.70,599.92,609.38,36.97,0000 0000 0000 0000 000000
2015-11-27 01:43:04,0.04,2.29,0.00,18.05,22.57,26.42,14.97,50.59,1022.01,2051.99,2717.93,2553.11,2808.01,600.00,609.36,37.03,0000 0000 0000 0000 000000
2015-11-27 01:48:06,0.05,2.29,0.00,18.07,22.58,26.49,14.95,50.69,1022.00,2051.98,2717.07,2552.75,2807.30,600.09,609.43,37.08,0000 0000 0000 0000 000000
2015-11-27 01:53:07,0.05,2.30,0.00,18.09,22.59,26.44,14.96,50.79,1022.01,2051.98,2716.20,2552.03,2806.64,600.17,609.47,37.13,0000 0000 0000 0000 000000
2015-11-27 01:58:08,0.05,2.30,0.00,18.09,22.59,26.46,15.00,50.92,1021.99,2051.99,2715.45,2551.56,2805.97,599.96,609.24,37.18,0000 0000 0000 0000 000000
2015-11-27 02:03:09,0.05,2.30,0.00,18.09,22.59,26.47,14.95,50.90,1021.99,2051.98,2714.56,2550.89,2805.13,600.08,609.30,37.23,0000 0000 0000 0000 000000
2015-11-27 02:08:10,0.06,2.30,0.00,18.10,22.59,26.43,14.96,50.90,1021.99,2051.96,2713.70,2550.08,2804.55,599.92,609.18,37.28,0000 0000 0000 0000 000000
2015-11-27 02:13:11,0.05,2.31,0.00,18.11,22.60,26.52,14.94,50.87,1021.99,2051.98,2712.85,2549.60,2803.92,599.87,609.11,37.33,0000 0000 0000 0000 000000
2015-11-27 02:18:13,0.04,2.31,0.00,18.12,22.61,26.49,14.94,50.84,1021.99,2051.96,2711.99,2549.00,2803.10,600.23,609.47,37.38,0000 0000 0000 0000 000000
2015-11-27 02:23:14,0.07,2.31,0.00,18.12,22.62,26.48,14.96,50.77,1021.99,2051.97,2711.07,2548.28,2802.45,599.89,609.13,37.43,0000 0000 0000 0000 000000
2015-11-27 02:28:15,0.04,2.31,0.00,18.12,22.62,26.50,14.89,50.74,1021.99,2051.96,2710.16,2547.80,2801.85,599.69,608.97,37.48,0000 0000 0000 0000 000000
2015-11-27 02:33:16,0.06,2.32,0.00,18.12,22.62,26.48,14.93,50.75,1021.99,2051.91,2709.28,2547.04,2801.05,599.83,609.02,37.53,0000 0000 0000 0000 000000
2015-11-27 02:38:17,0.06,2.32,0.00,18.14,22.62,26.53,14.98,50.67,1021.99,2051.91,2708.49,2546.51,2800.32,600.29,609.47,37.58,0000 0000 0000 0000 000000
2015-11-27 02:43:19,0.03,2.32,0.00,18.16,22.64,26.54,14.98,50.68,1022.00,2051.90,2707.66,2545.98,2799.76,599.87,609.11,37.63,0000 0000 0000 0000 000000
2015-11-27 02:48:20,0.03,2.32,0.00,18.17,22.64,26.52,14.92,50.52,1022.01,2051.67,2706.78,2545.17,2798.98,600.02,609.17,37.68,0000 0000 0000 0000 000000
2015-11-27 02:53:21,0.07,2.33,0.00,18.17,22.64,26.52,14.97,50.67,1021.99,2051.77,2705.98,2544.71,2798.16,600.27,609.34,37.73,0000 0000 0000 0000 000000
2015-11-27 02:58:22,0.06,2.33,0.00,18.18,22.64,26.50,14.93,50.56,1021.99,2051.85,2705.11,2544.03,2797.64,599.81,608.92,37.78,0000 0000 0000 0000 000000
2015-11-27 03:03:24,0.05,2.33,0.00,18.19,22.65,26.49,14.91,50.60,1021.98,2051.74,2704.20,2543.42,2796.89,599.77,608.80,37.83,0000 0000 0000 0000 000000
2015-11-27 03:08:25,0.03,2.33,0.00,18.20,22.67,26.50,14.99,50.80,1021.94,2051.47,2703.20,2542.70,2796.07,600.20,609.28,37.88,0000 0000 0000 0000 000000
2015-11-27 03:13:26,0.06,2.34,0.00,18.22,22.67,26.51,14.97,50.67,1021.99,2051.42,2702.23,2542.02,2795.30,600.53,609.52,37.94,0000 0000 0000 0000 000000
2015-11-27 03:18:28,0.06,2.34,0.00,18.23,22.67,26.52,14.87,50.59,1021.98,2051.39,2701.31,2541.30,2794.59,599.72,608.72,37.99,0000 0000 0000 0000 000000
2015-11-27 03:23:29,0.02,2.34,0.00,18.25,22.68,26.50,14.92,50.57,1021.99,2051.24,2700.42,2540.76,2793.92,599.87,608.83,38.04,0000 0000 0000 0000 000000
2015-11-27 03:28:30,0.05,2.35,0.00,18.27,22.69,26.56,14.97,50.55,1021.94,2051.14,2699.64,2540.04,2793.08,600.04,609.01,38.09,0000 0000 0000 0000 000000
2015-11-27 03:33:32,0.06,2.35,0.00,18.29,22.69,26.54,14.88,50.54,1021.80,2051.06,2698.79,2539.53,2792.45,599.50,608.25,38.14,0000 0000 0000 0000 000000
2015-11-27 03:38:33,0.03,2.35,0.00,18.30,22.70,26.59,14.97,50.65,1021.73,2051.07,2697.94,2538.96,2791.87,600.04,608.75,38.19,0000 0000 0000 0000 000000
2015-11-27 03:43:34,0.06,2.35,0.00,18.32,22.71,26.52,14.90,50.81,1021.69,2051.06,2697.02,2538.13,2791.04,599.64,608.37,38.24,0000 0000 0000 0000 000000
2015-11-27 03:48:35,0.06,2.36,0.00,18.33,22.72,26.49,14.95,50.72,1021.61,2051.04,2696.07,2537.56,2790.20,600.00,608.56,38.29,0000 0000 0000 0000 000000
2015-11-27 03:53:37,0.04,2.36,0.00,18.34,22.72,26.56,14.89,50.67,1021.56,2051.04,2695.13,2536.95,2789.50,599.89,608.30,38.34,0000 0000 0000 0000 000000
2015-11-27 03:58:38,0.06,2.36,0.00,18.34,22.73,26.57,14.92,50.58,1021.51,2051.01,2694.21,2536.10,2788.74,599.92,608.24,38.39,0000 0000 0000 0000 000000
2015-11-27 04:03:40,0.07,2.36,0.00,18.36,22.74,26.58,14.92,50.88,1021.42,2051.01,2693.08,2535.47,2787.87,599.91,608.41,38.44,0000 0000 0000 0000 000000
2015-11-27 04:08:41,0.08,2.37,0.00,18.38,22.74,26.61,14.90,50.79,1021.55,2051.00,2691.86,2534.36,2786.87,599.88,608.32,38.49,0000 0000 0000 0000 000000
2015-11-27 04:13:42,0.04,2.37,0.00,18.39,22.75,26.63,15.06,50.71,1021.95,2051.00,2690.93,2533.80,2786.03,600.56,609.20,38.54,0000 0000 0000 0000 000000
2015-11-27 04:18:44,0.06,2.38,0.00,18.40,22.77,26.62,14.91,50.67,1021.99,2051.00,2690.00,2533.04,2785.17,599.80,608.50,38.59,0000 0000 0000 0000 000000
2015-11-27 04:23:45,0.07,2.38,0.00,18.42,22.77,26.63,14.88,50.67,1021.99,2051.00,2689.06,2532.26,2784.45,600.01,608.65,38.64,0000 0000 0000 0000 000000
2015-11-27 04:28:46,0.04,2.38,0.00,18.42,22.77,26.68,14.96,50.64,1021.99,2051.00,2688.16,2531.83,2783.84,599.85,608.47,38.69,0000 0000 0000 0000 000000
2015-11-27 04:33:47,0.06,2.39,0.00,18.43,22.78,26.65,14.90,50.61,1021.98,2051.00,2687.18,2531.03,2782.98,599.93,608.50,38.74,0000 0000 0000 0000 000000
2015-11-27 04:38:49,0.07,2.39,0.00,18.44,22.79,26.62,14.97,50.86,1021.58,2051.00,2686.35,2530.27,2782.11,600.06,608.35,38.80,0000 0000 0000 0000 000000
2015-11-27 04:43:50,0.04,2.39,0.00,18.44,22.79,26.66,14.88,50.69,1021.65,2051.00,2685.50,2529.84,2781.38,599.82,608.15,38.85,0000 0000 0000 0000 000000
2015-11-27 04:48:51,0.05,2.39,0.00,18.44,22.80,26.72,14.95,50.87,1022.03,2050.99,2684.68,2529.05,2780.74,600.10,608.67,38.90,0000 0000 0000 0000 000000
2015-11-27 04:53:52,0.06,2.40,0.00,18.45,22.82,26.70,14.97,50.75,1022.47,2050.99,2683.71,2528.33,2779.91,600.04,608.87,38.95,0000 0000 0000 0000 000000
2015-11-27 04:58:54,0.04,2.40,0.00,18.46,22.82,26.71,14.96,50.63,1022.41,2050.97,2682.72,2527.84,2779.07,600.14,608.85,39.00,0000 0000 0000 0000 000000
2015-11-27 05:03:55,0.06,2.40,0.00,18.47,22.82,26.71,14.93,50.63,1022.18,2050.98,2681.84,2527.06,2778.31,600.00,608.51,39.05,0000 0000 0000 0000 000000
2015-11-27 05:08:56,0.06,2.41,0.00,18.49,22.84,26.72,14.92,50.61,1022.07,2050.98,2681.02,2526.29,2777.67,600.15,608.54,39.10,0000 0000 0000 0000 000000
2015-11-27 05:13:57,0.04,2.41,0.00,18.51,22.84,26.69,14.90,50.52,1021.99,2050.96,2680.16,2525.79,2776.93,599.82,608.16,39.15,0000 0000 0000 0000 000000
2015-11-27 05:18:58,0.06,2.41,0.00,18.53,22.85,26.74,14.94,50.67,1021.98,2050.96,2679.32,2525.04,2776.11,599.99,608.40,39.20,0000 0000 0000 0000 000000
2015-11-27 05:24:00,0.06,2.41,0.00,18.54,22.87,26.71,14.96,50.71,1021.70,2050.97,2678.46,2524.58,2775.63,600.25,608.42,39.25,0000 0000 0000 0000 000000
2015-11-27 05:29:01,0.03,2.42,0.00,18.55,22.87,26.72,14.92,50.72,1021.51,2050.95,2677.63,2524.00,2774.92,600.08,608.03,39.30,0000 0000 0000 0000 000000
2015-11-27 05:34:02,0.05,2.42,0.00,18.56,22.89,26.74,14.86,50.76,1021.50,2050.81,2676.70,2523.22,2774.08,599.89,607.89,39.35,0000 0000 0000 0000 000000
2015-11-27 05:39:04,0.04,2.42,0.00,18.57,22.89,26.79,14.93,50.62,1021.59,2050.66,2675.73,2522.67,2773.28,600.13,608.20,39.40,0000 0000 0000 0000 000000
2015-11-27 05:44:06,0.03,2.42,0.00,18.57,22.89,26.80,14.97,50.53,1021.94,2050.56,2674.93,2522.02,2772.72,600.09,608.32,39.45,0000 0000 0000 0000 000000
2015-11-27 05:49:07,0.07,2.43,0.00,18.59,22.90,26.81,14.95,50.53,1021.98,2050.54,2674.07,2521.43,2772.01,600.33,608.62,39.50,0000 0000 0000 0000 000000
2015-11-27 05:54:08,-0.00,2.43,0.00,18.60,22.92,26.83,15.01,50.58,1021.97,2050.25,2673.18,2520.95,2771.24,600.14,608.43,39.55,0000 0000 0000 0000 000000
2015-11-27 05:59:09,0.06,2.43,0.00,18.62,22.92,26.77,14.96,50.52,1021.99,2050.17,2672.42,2520.12,2770.65,600.16,608.31,39.60,0000 0000 0000 0000 000000
2015-11-27 06:04:10,0.04,2.43,0.00,18.64,22.94,26.82,14.90,50.38,1021.91,2050.14,2671.63,2519.70,2769.95,600.01,608.11,39.65,0000 0000 0000 0000 000000
2015-11-27 06:09:12,0.04,2.43,0.00,18.64,22.94,26.80,14.86,50.46,1021.52,2050.08,2670.79,2519.02,2769.12,599.80,607.64,39.70,0000 0000 0000 0000 000000
2015-11-27 06:14:13,0.05,2.44,0.00,18.67,22.96,26.79,14.95,50.69,1021.50,2050.04,2669.92,2518.36,2768.61,600.05,607.91,39.76,0000 0000 0000 0000 000000
2015-11-27 06:19:15,0.03,2.44,0.00,18.67,22.97,26.82,14.81,50.65,1021.48,2050.05,2669.05,2517.93,2767.99,599.82,607.39,39.81,0000 0000 0000 0000 000000
2015-11-27 06:24:16,0.07,2.44,0.00,18.67,22.98,26.88,14.90,50.67,1021.39,2050.03,2668.20,2517.14,2767.15,600.03,607.70,39.86,0000 0000 0000 0000 000000
2015-11-27 06:29:17,0.06,2.44,0.00,18.67,22.99,26.86,14.88,50.72,1021.31,2050.03,2667.36,2516.65,2766.55,599.98,607.75,39.91,0000 0000 0000 0000 000000
2015-11-27 06:34:18,0.04,2.45,0.00,18.68,22.99,26.90,14.92,50.67,1021.21,2050.02,2666.39,2515.98,2765.79,599.86,607.28,39.96,0000 0000 0000 0000 000000
2015-11-27 06:39:20,0.06,2.45,0.00,18.69,23.01,26.85,14.86,50.74,1021.07,2050.00,2665.44,2515.16,2765.02,599.88,607.33,40.01,0000 0000 0000 0000 000000
2015-11-27 06:44:21,0.06,2.45,0.00,18.69,23.02,26.91,14.97,50.76,1021.03,2050.00,2664.56,2514.64,2764.24,599.89,607.37,40.06,0000 0000 0000 0000 000000
2015-11-27 06:49:22,0.07,2.46,0.00,18.70,23.02,26.87,14.83,51.08,1021.01,2050.00,2663.37,2513.76,2763.43,599.84,607.27,40.11,0000 0000 0000 0000 000000
2015-11-27 06:54:23,0.07,2.46,0.00,18.70,23.04,26.92,14.92,50.86,1021.34,2050.00,2662.03,2512.91,2762.32,600.15,607.76,40.16,0000 0000 0000 0000 000000
2015-11-27 06:59:25,0.06,2.47,0.00,18.69,23.04,26.95,14.85,50.71,1021.56,2050.00,2661.09,2512.07,2761.50,599.79,607.52,40.21,0000 0000 0000 0000 000000
2015-11-27 07:04:26,0.03,2.47,0.00,18.69,23.05,26.96,14.90,50.61,1021.86,2049.99,2660.63,2511.80,2760.95,600.15,608.06,40.26,0000 0000 0000 0000 000000
2015-11-27 07:09:27,0.05,2.47,0.00,18.71,23.07,26.95,14.95,50.70,1021.99,2049.99,2659.88,2511.05,2760.14,600.03,608.04,40.31,0000 0000 0000 0000 000000
2015-11-27 07:14:29,0.06,2.47,0.00,18.72,23.07,26.91,14.86,50.55,1021.99,2049.99,2659.06,2510.44,2759.62,599.54,607.49,40.36,0000 0000 0000 0000 000000
2015-11-27 07:19:30,0.03,2.48,0.00,18.74,23.09,26.98,14.96,50.65,1021.99,2049.99,2658.17,2509.99,2758.98,600.19,608.08,40.41,0000 0000 0000 0000 000000
2015-11-27 07:24:31,0.06,2.48,0.00,18.75,23.10,26.97,14.95,50.53,1021.99,2049.96,2657.42,2509.21,2758.14,599.86,607.82,40.46,0000 0000 0000 0000 000000
2015-11-27 07:29:32,0.04,2.48,0.00,18.77,23.11,26.98,14.92,50.59,1021.99,2049.98,2656.66,2508.90,2757.59,600.09,607.84,40.51,0000 0000 0000 0000 000000
2015-11-27 07:34:34,0.04,2.48,0.00,18.79,23.12,26.97,14.86,50.41,1021.99,2049.95,2655.94,2508.09,2756.98,600.09,607.93,40.56,0000 0000 0000 0000 000000
2015-11-27 07:39:35,0.06,2.49,0.00,18.81,23.13,26.98,14.82,50.48,1022.12,2049.92,2655.07,2507.64,2756.18,599.53,607.41,40.61,0000 0000 0000 0000 000000
2015-11-27 07:44:36,0.03,2.49,0.00,18.83,23.14,26.94,14.94,50.40,1022.18,2049.76,2654.15,2507.00,2755.57,600.23,607.99,40.67,0000 0000 0000 0000 000000
2015-11-27 07:49:38,0.04,2.49,0.00,18.85,23.16,26.85,14.94,50.64,1022.21,2049.61,2653.39,2506.26,2754.98,600.00,607.79,40.72,0000 0000 0000 0000 000000
2015-11-27 07:54:39,0.03,2.49,0.00,18.87,23.17,26.99,14.85,50.49,1022.10,2049.40,2652.66,2505.93,2754.15,599.88,607.59,40.77,0000 0000 0000 0000 000000
2015-11-27 07:59:40,0.05,2.49,0.00,18.90,23.18,26.99,14.85,50.66,1021.92,2049.31,2651.84,2505.11,2753.63,599.89,607.42,40.82,0000 0000 0000 0000 000000
2015-11-27 08:04:42,0.03,2.50,0.00,18.92,23.19,27.05,14.92,50.81,1021.53,2049.08,2650.93,2504.60,2752.94,600.09,607.38,40.87,0000 0000 0000 0000 000000
2015-11-27 08:09:43,0.04,2.50,0.00,18.93,23.21,27.05,14.98,50.73,1021.50,2049.04,2650.04,2503.99,2752.10,600.24,607.43,40.92,0000 0000 0000 0000 000000
2015-11-27 08:14:44,0.07,2.50,0.00,18.94,23.22,27.05,14.85,50.67,1021.50,2049.02,2649.18,2503.22,2751.52,599.86,607.32,40.97,0000 0000 0000 0000 000000
2015-11-27 08:19:46,0.04,2.50,0.00,18.96,23.24,27.03,14.81,50.50,1021.53,2049.01,2648.30,2502.79,2750.99,600.07,607.20,41.02,0000 0000 0000 0000 000000
2015-11-27 08:24:47,0.06,2.51,0.00,18.98,23.24,27.01,14.96,50.63,1021.51,2049.00,2647.55,2502.05,2750.24,600.32,607.53,41.07,0000 0000 0000 0000 000000
2015-11-27 08:29:48,0.05,2.51,0.00,18.99,23.27,27.14,14.88,50.53,1021.49,2049.00,2646.81,2501.49,2749.71,599.91,606.93,41.12,0000 0000 0000 0000 000000
2015-11-27 08:34:49,0.03,2.51,0.00,19.01,23.27,27.09,14.97,50.52,1021.50,2049.00,2645.99,2500.99,2749.01,600.12,607.20,41.17,0000 0000 0000 0000 000000
2015-11-27 08:39:50,0.07,2.52,0.00,19.03,23.29,27.10,14.98,50.52,1021.50,2049.00,2645.12,2500.26,2748.23,600.48,607.39,41.22,0000 0000 0000 0000 000000
2015-11-27 08:44:51,0.04,2.52,0.00,19.04,23.31,27.08,14.93,50.63,1021.34,2049.00,2644.33,2499.89,2747.66,599.91,606.78,41.27,0000 0000 0000 0000 000000
2015-11-27 08:49:52,0.05,2.52,0.00,19.04,23.32,27.13,14.97,50.60,1021.36,2048.99,2643.52,2499.08,2746.99,600.21,607.14,41.32,0000 0000 0000 0000 000000
2015-11-27 08:54:53,0.05,2.52,0.00,19.02,23.34,27.17,14.91,50.59,1021.50,2048.97,2642.78,2498.54,2746.21,600.09,607.06,41.37,0000 0000 0000 0000 000000
2015-11-27 08:59:55,0.03,2.53,0.00,19.04,23.35,27.14,14.83,50.57,1021.52,2048.97,2641.99,2498.01,2745.67,600.04,607.22,41.42,0000 0000 0000 0000 000000
2015-11-27 09:04:56,0.05,2.53,0.00,19.04,23.37,27.14,14.92,50.52,1021.53,2048.96,2641.16,2497.45,2744.99,600.16,607.20,41.47,0000 0000 0000 0000 000000
2015-11-27 09:09:58,0.05,2.53,0.00,19.04,23.38,27.17,14.91,50.56,1021.76,2048.94,2640.32,2496.97,2744.21,600.06,607.22,41.53,0000 0000 0000 0000 000000
2015-11-27 09:14:59,0.04,2.53,0.00,19.06,23.39,27.15,14.84,50.52,1021.61,2048.85,2639.61,2496.19,2743.75,599.91,606.94,41.58,0000 0000 0000 0000 000000
2015-11-27 09:20:00,-0.00,2.53,0.00,19.07,23.41,27.16,14.85,50.66,1021.49,2048.63,2638.85,2495.92,2743.02,599.85,606.82,41.63,0000 0000 0000 0000 000000
2015-11-27 09:25:01,0.06,2.54,0.00,19.08,23.42,27.21,14.89,50.68,1021.19,2048.44,2638.00,2495.12,2742.28,599.94,606.70,41.68,0000 0000 0000 0000 000000
2015-11-27 09:30:03,0.03,2.54,0.00,19.09,23.44,27.22,14.93,50.53,1021.20,2048.18,2637.09,2494.70,2741.65,600.09,606.82,41.73,0000 0000 0000 0000 000000
2015-11-27 09:35:04,0.04,2.54,0.00,19.09,23.45,27.24,14.89,50.59,1021.15,2048.06,2636.20,2494.02,2740.97,600.27,607.01,41.78,0000 0000 0000 0000 000000
2015-11-27 09:40:05,0.07,2.54,0.00,19.09,23.46,27.23,14.79,50.45,1021.26,2048.02,2635.25,2493.32,2740.15,599.67,606.44,41.83,0000 0000 0000 0000 000000
2015-11-27 09:45:06,0.05,2.54,0.00,19.09,23.47,27.27,14.87,50.57,1021.33,2048.02,2634.39,2492.81,2739.44,600.20,606.96,41.88,0000 0000 0000 0000 000000
2015-11-27 09:50:07,0.05,2.55,0.00,19.10,23.49,27.20,14.89,50.48,1021.34,2048.01,2633.54,2492.04,2738.85,600.36,607.17,41.93,0000 0000 0000 0000 000000
2015-11-27 09:55:09,0.05,2.55,0.00,19.10,23.50,27.32,14.87,50.48,1021.49,2048.00,2632.73,2491.56,2738.04,600.13,606.98,41.98,0000 0000 0000 0000 000000
2015-11-27 10:00:10,0.04,2.55,0.00,19.13,23.52,27.34,14.99,50.56,1021.50,2047.99,2631.89,2490.97,2737.41,600.22,607.01,42.03,0000 0000 0000 0000 000000
2015-11-27 10:05:11,0.05,2.56,0.00,19.14,23.52,27.32,14.87,50.42,1021.50,2047.99,2631.05,2490.21,2736.83,600.16,606.96,42.08,0000 0000 0000 0000 000000
2015-11-27 10:10:13,0.04,2.56,0.00,19.16,23.54,27.32,14.89,50.43,1021.52,2047.98,2630.30,2489.85,2736.05,599.88,606.65,42.13,0000 0000 0000 0000 000000
2015-11-27 10:15:14,0.06,2.56,0.00,19.17,23.55,27.34,14.89,50.48,1021.50,2047.99,2629.49,2489.08,2735.47,599.99,606.83,42.18,0000 0000 0000 0000 000000
2015-11-27 10:20:15,0.04,2.56,0.00,19.19,23.57,27.32,14.83,50.37,1021.50,2047.95,2628.77,2488.60,2734.87,599.52,606.34,42.23,0000 0000 0000 0000 000000
2015-11-27 10:25:16,0.04,2.57,0.00,19.19,23.57,27.35,14.93,50.39,1021.67,2047.94,2627.95,2488.01,2734.07,600.33,607.06,42.28,0000 0000 0000 0000 000000
2015-11-27 10:30:18,0.06,2.57,0.00,19.21,23.59,27.39,14.79,50.22,1021.99,2047.94,2627.07,2487.44,2733.45,599.93,606.87,42.33,0000 0000 0000 0000 000000
2015-11-27 10:35:19,0.03,2.57,0.00,19.22,23.60,27.40,14.85,50.26,1021.99,2047.93,2626.29,2486.98,2732.95,599.97,606.96,42.38,0000 0000 0000 0000 000000
2015-11-27 10:40:20,0.02,2.57,0.00,19.23,23.62,27.40,14.84,50.23,1021.97,2047.53,2625.56,2486.21,2732.12,600.01,607.01,42.44,0000 0000 0000 0000 000000
2015-11-27 10:45:22,0.03,2.57,0.00,19.25,23.63,27.42,14.85,50.26,1021.73,2047.34,2624.89,2485.86,2731.60,599.80,606.51,42.49,0000 0000 0000 0000 000000
2015-11-27 10:50:23,0.03,2.58,0.00,19.27,23.65,27.43,14.85,50.24,1021.62,2047.16,2624.06,2485.09,2730.93,599.80,606.29,42.54,0000 0000 0000 0000 000000
2015-11-27 10:55:24,0.06,2.58,0.00,19.28,23.66,27.40,14.89,50.21,1021.86,2047.03,2623.22,2484.56,2730.11,599.70,606.38,42.59,0000 0000 0000 0000 000000
2015-11-27 11:00:26,0.04,2.58,0.00,19.29,23.67,27.38,14.84,50.27,1021.99,2047.00,2622.63,2484.00,2729.60,600.09,606.83,42.64,0000 0000 0000 0000 000000
2015-11-27 11:05:27,0.05,2.58,0.00,19.31,23.70,27.46,14.88,50.27,1021.96,2047.00,2621.83,2483.39,2728.97,600.22,607.00,42.69,0000 0000 0000 0000 000000
2015-11-27 11:10:29,0.04,2.59,0.00,19.32,23.70,27.52,14.86,50.20,1021.97,2047.00,2621.00,2482.93,2728.12,600.02,606.74,42.74,0000 0000 0000 0000 000000
2015-11-27 11:15:30,0.06,2.59,0.00,19.34,23.72,27.42,14.85,50.15,1021.99,2047.00,2620.15,2482.13,2727.77,600.11,606.74,42.79,0000 0000 0000 0000 000000
2015-11-27 11:20:31,0.04,2.59,0.00,19.34,23.73,27.50,14.93,50.31,1021.99,2047.00,2619.46,2481.86,2727.02,600.38,607.05,42.84,0000 0000 0000 0000 000000
2015-11-27 11:25:33,0.06,2.59,0.00,19.37,23.75,27.47,14.81,50.18,1021.98,2047.00,2618.74,2481.05,2726.40,599.73,606.39,42.89,0000 0000 0000 0000 000000
2015-11-27 11:30:34,0.03,2.60,0.00,19.39,23.76,27.48,14.75,50.11,1021.99,2047.00,2617.97,2480.69,2725.88,599.72,606.40,42.94,0000 0000 0000 0000 000000
2015-11-27 11:35:35,0.05,2.60,0.00,19.39,23.77,27.50,14.85,50.08,1021.98,2047.00,2617.11,2480.02,2725.06,599.98,606.56,42.99,0000 0000 0000 0000 000000
2015-11-27 11:40:36,0.06,2.60,0.00,19.41,23.80,27.50,14.78,50.12,1021.94,2047.00,2616.35,2479.55,2724.49,599.58,606.08,43.04,0000 0000 0000 0000 000000
2015-11-27 11:45:38,0.02,2.60,0.00,19.42,23.81,27.56,14.83,50.17,1021.95,2047.00,2615.80,2479.00,2723.96,600.09,606.67,43.09,0000 0000 0000 0000 000000
2015-11-27 11:50:39,0.06,2.61,0.00,19.43,23.82,27.52,14.80,50.13,1021.98,2047.00,2615.00,2478.30,2723.18,599.88,606.36,43.14,0000 0000 0000 0000 000000
2015-11-27 11:55:40,0.03,2.61,0.00,19.44,23.84,27.60,14.88,50.10,1021.98,2047.00,2614.16,2477.97,2722.70,600.06,606.44,43.19,0000 0000 0000 0000 000000
2015-11-27 12:00:42,0.06,2.61,0.00,19.46,23.85,27.59,14.88,50.24,1021.97,2047.00,2613.51,2477.21,2722.02,599.77,606.22,43.24,0000 0000 0000 0000 000000
2015-11-27 12:05:43,0.03,2.61,0.00,19.47,23.87,27.64,14.90,50.36,1021.81,2046.98,2612.89,2476.87,2721.43,600.04,606.29,43.29,0000 0000 0000 0000 000000
2015-11-27 12:10:44,0.05,2.62,0.00,19.49,23.89,27.71,14.89,50.38,1021.58,2046.95,2612.03,2476.07,2720.90,599.90,606.13,43.35,0000 0000 0000 0000 000000
2015-11-27 12:15:45,0.05,2.62,0.00,19.51,23.90,27.75,14.89,50.35,1021.84,2046.96,2611.20,2475.81,2720.08,600.09,606.53,43.40,0000 0000 0000 0000 000000
2015-11-27 12:20:47,0.05,2.62,0.00,19.53,23.92,27.66,14.86,50.17,1021.74,2046.86,2610.35,2475.04,2719.52,600.11,606.27,43.45,0000 0000 0000 0000 000000
2015-11-27 12:25:48,-0.01,2.62,0.00,19.54,23.92,27.65,14.92,50.27,1021.71,2046.41,2609.67,2474.51,2718.84,600.17,606.18,43.50,0000 0000 0000 0000 000000
2015-11-27 12:30:49,0.02,2.62,0.00,19.54,23.94,27.66,14.78,50.18,1021.62,2046.11,2608.94,2473.99,2718.08,600.11,606.11,43.55,0000 0000 0000 0000 000000
2015-11-27 12:35:50,0.06,2.62,0.00,19.57,23.95,27.67,14.82,50.29,1021.55,2046.06,2608.15,2473.39,2717.60,599.69,605.58,43.60,0000 0000 0000 0000 000000
2015-11-27 12:40:52,0.03,2.63,0.00,19.57,23.97,27.75,14.87,50.23,1021.59,2046.04,2607.53,2472.99,2717.00,599.87,605.78,43.65,0000 0000 0000 0000 000000
2015-11-27 12:45:53,0.07,2.63,0.00,19.58,23.97,27.75,14.83,50.33,1021.56,2046.01,2606.72,2472.23,2716.25,599.77,605.72,43.70,0000 0000 0000 0000 000000
2015-11-27 12:50:54,0.02,2.63,0.00,19.59,23.99,27.71,14.79,50.05,1021.50,2046.01,2606.01,2471.94,2715.83,599.86,605.77,43.75,0000 0000 0000 0000 000000
2015-11-27 12:55:55,0.06,2.64,0.00,19.59,24.00,27.70,14.76,50.20,1021.50,2046.00,2605.27,2471.19,2715.06,599.73,605.63,43.80,0000 0000 0000 0000 000000